星链-30114 (STARLINK-30114 )

导读 | 星芒AI

STARLINK-30114 是 SpaceX Starlink 项目中的一颗低轨通信卫星,属于第三代 Starlink 卫星(v1.5 或 v2 版本)。该卫星用于提供全球高速互联网服务,支持偏远地区的网络接入。它运行在约 550 公里的轨道高度,具备先进通信技术和激光链路,以提高数据传输效率和网络稳定性。该卫星于 2023 年发射,是 Starlink 卫星群的重要组成部分,助力实现 SpaceX 的全球宽带覆盖目标。

基本信息
目录编号:
56826
目录名称:
STARLINK-30114
国际标识:
2023-079D
轨道中心:
EARTH
卫星名称:
星链-30114
卫星全名:
星链-30114 (STARLINK-30114 )
卫星状态:
在轨 (已飞行879 天)
发射日期:
2023-06-04 UTC
国别 :
美国 (US)
星等 :
--
轨道信息
数据来源 国际轨道数据
星历时间: 2025-10-30T11:26:09+0800
12小时前
查看轨道信息
半长轴: 6937.246km
偏心率: 0.0001003
轨道倾角: 43.005°
近地点辐角 275.305°
升交点赤经 96.807°
平近点角 84.768°
近地点: 558.415km
远地点: 559.807km
周期: 95.839分钟
每日圈数: 15.025265
详细信息
固有亮度:
5
最大亮度:
0.5
卫星平台:
Starlink v2.0 mini
覆盖范围:
全球
运营商:
太空探索技术公司
运营商所在国:
美国
制造商(研发单位):
太空探索技术公司
制造商所在国:
美国
使用方式:
暂无
卫星简介
星链(Starlink)计划是由太空探索技术公司(SpaceX)提出的一个巨型低轨卫星互联网星座项目,计划在2019年至2024年间在太空搭建由约1.2万颗卫星组成的“星链”网络,其中1584颗将部署在地球上空550千米处的近地轨道,并从2020年开始工作。该卫星仍在工作。
2D轨道图
3D轨道图
轨道高度分析图
轨道倾角分析图
轨道综合分析图
查看轨道综合分析图